www.pogodaiklimat.ru

Погода и климат >> Архив погоды >> Фиджи >> Вануа Мбалаву


ПОГОДА на Вануа Мбалаву

  • Прогноз погоды на Вануа Мбалаву
  • Монитор погоды на Вануа Мбалаву

АРХИВ ПОГОДЫ на Вануа Мбалаву

Время (UTC), дата Ветер
(напр.,м/с)
 
Видим.   Явления Облачность Т
(С)
Тd
(С)
f
(%)
Тe
(С)
Тes
(С)
Комфортность P
(гПа)
Po
(гПа)
Тmin
(С)
Tmax
(С)
R
(мм)
R24
(мм)
S
(см)
21 9.06 В 10 н/о н/о +26.6 +21.6 74 +34 +34 очень
душно
1019.0 1012.9
00 10.06 В 7 н/о н/о +26.4 +23.1 82 +35 +35 очень
душно
1018.3 1012.2 +22.4
03 10.06 В 7 н/о н/о +26.5 +23.2 82 +36 +36 очень
душно
1016.5 1010.4
06 10.06 В 7 н/о н/о +26.3 +23.7 86 +36 +36 очень
душно
1017.3 1011.2
09 10.06 В 5 н/о н/о +25.7 +24.6 94 +36 +36 очень
душно
1018.4 1012.3
12 10.06 В 4 н/о н/о +26.3 +25.3 94 +38 +38 очень
душно
1016.7 1010.6 +28.5
15 10.06 В 7 н/о н/о +27.1 +25.9 93 +40 +40 очень
душно
1013.9 1007.9
18 10.06 СВ 3 н/о н/о +27.1 +26.4 96 +41 +41 опасность
перегрева
1015.1 1009.0 7
21 10.06 З 12 н/о н/о +24.1 +23.5 96 +32 +32 очень
душно
1017.9 1011.8
00 11.06 ЮВ 2 н/о н/о +23.5 +22.7 95 +31 +31 очень
душно
1016.5 1010.4 +24.2 36
03 11.06 В 4 н/о н/о +26.3 +23.5 85 +36 +36 очень
душно
1014.5 1008.4
06 11.06 В 1 н/о н/о +25.7 +23.9 90 +35 +35 очень
душно
1016.3 1010.2
09 11.06 ЮВ 1 н/о н/о +25.3 +24.4 95 +35 +35 очень
душно
1016.9 1010.8
12 11.06 В 2 н/о н/о +25.4 +24.6 95 +36 +36 очень
душно
1016.3 1010.2 +27.8
15 11.06 В 2 н/о н/о +25.4 +24.6 95 +36 +36 очень
душно
1015.1 1009.0
18 11.06 В 2 н/о н/о +26.1 +24.7 92 +37 +37 очень
душно
1015.6 1009.5
21 11.06 В 3 н/о н/о +27.3 +25.5 90 +40 +40 очень
душно
1017.1 1011.0
00 12.06 В 3 н/о н/о +26.9 +25.6 93 +40 +40 очень
душно
1015.4 1009.3 +21.9 8
03 12.06 В 2 н/о н/о +24.7 +24.1 96 +34 +34 очень
душно
1014.0 1007.9
06 12.06 Ю 1 н/о н/о +24.8 +23.7 94 +34 +34 очень
душно
1015.2 1009.1 25
09 12.06 СЗ 2 н/о н/о +25.3 +24.3 94 +35 +35 очень
душно
1016.2 1010.1
12 12.06 ЮВ 1 н/о н/о +24.5 +23.8 96 +33 +33 очень
душно
1015.6 1009.5 +27.6 4
15 12.06 В 1 н/о н/о +24.6 +24.0 96 +34 +34 очень
душно
1013.8 1007.7
18 12.06 ЮЗ 1 н/о н/о +25.1 +24.4 96 +35 +35 очень
душно
1014.4 1008.3 2
21 12.06 В 3 н/о н/о +25.5 +24.8 96 +36 +36 очень
душно
1016.6 1010.5
00 13.06 Ю 4 н/о н/о +26.4 +24.7 90 +37 +37 очень
душно
1015.2 1009.1 +24.0 3
03 13.06 ЮВ 7 н/о н/о +26.3 +23.8 86 +36 +36 очень
душно
1012.6 1006.5
06 13.06 Ю 7 н/о н/о +26.2 +23.1 83 +35 +35 очень
душно
1015.5 1009.4 1
09 13.06 Ю 7 н/о н/о +25.8 +22.0 80 +33 +33 очень
душно
1016.7 1010.6
12 13.06 ЮВ 5 н/о н/о +25.5 +21.5 79 +33 +33 очень
душно
1015.8 1009.7 +28.3
15 13.06 Ю 5 н/о н/о +25.4 +21.1 77 +32 +32 очень
душно
1015.1 1009.0
18 13.06 Ю 4 н/о н/о +25.3 +21.5 79 +32 +32 очень
душно
1016.3 1010.2
21 13.06 Ю 4 н/о н/о +27.3 +21.1 69 +34 +34 очень
душно
1018.1 1012.0
00 14.06 ЮВ 6 н/о н/о +27.9 +20.9 66 +35 +35 очень
душно
1016.6 1010.6 +25.0
03 14.06 ЮВ 4 н/о н/о +27.1 +21.6 72 +35 +35 очень
душно
1014.8 1008.8
06 14.06 ЮВ 4 н/о н/о +25.5 +21.7 80 +33 +33 очень
душно
1015.7 1009.6
09 14.06 ЮВ 4 н/о н/о +25.7 +22.3 82 +34 +34 очень
душно
1017.4 1011.3
12 14.06 ЮВ 5 н/о н/о +25.9 +22.5 82 +34 +34 очень
душно
1017.4 1011.3 +28.6
15 14.06 ЮВ 6 н/о н/о +24.4 +22.4 89 +32 +32 очень
душно
1016.5 1010.4
18 14.06 ЮВ 5 н/о н/о +25.1 +22.9 88 +33 +33 очень
душно
1016.4 1010.3
21 14.06 ЮВ 7 н/о н/о +26.6 +23.6 84 +36 +36 очень
душно
1018.2 1012.1
00 15.06 ЮВ 7 н/о н/о +28.4 +23.8 76 +39 +39 очень
душно
1017.0 1011.0 +24.2 0.5
03 15.06 ЮВ 7 н/о н/о +27.5 +23.9 81 +38 +38 очень
душно
1015.3 1009.3
06 15.06 ЮВ 8 н/о н/о +26.5 +23.0 81 +35 +35 очень
душно
1016.3 1010.2
09 15.06 ЮВ 8 н/о н/о +26.3 +22.9 82 +35 +35 очень
душно
1017.7 1011.6
12 15.06 ЮВ 7 н/о н/о +26.1 +23.0 83 +35 +35 очень
душно
1017.8 1011.7 +28.7
15 15.06 ЮВ 7 н/о н/о +26.2 +23.0 83 +35 +35 очень
душно
1017.1 1011.0
18 15.06 ЮВ 8 н/о н/о +26.0 +22.6 82 +34 +34 очень
душно
1017.1 1011.0 0.5
21 15.06 ЮВ 7 н/о н/о +26.7 +23.1 81 +36 +36 очень
душно
1018.7 1012.6
00 16.06 ЮВ 9 н/о н/о +27.8 +23.3 77 +38 +38 очень
душно
1017.5 1011.4 +25.0
03 16.06 ЮВ 8 н/о н/о +27.9 +23.2 76 +38 +38 очень
душно
1016.2 1010.2
06 16.06 ЮВ 7 н/о н/о +26.5 +23.2 82 +36 +36 очень
душно
1017.1 1011.0
09 16.06 ЮВ 8 н/о н/о +26.7 +23.3 82 +36 +36 очень
душно
1018.3 1012.2
12 16.06 ЮВ 8 н/о н/о +26.7 +23.9 85 +37 +37 очень
душно
1018.5 1012.4 +29.1

 

Местоположение метеостанции Вануа Мбалаву (Фиджи): широта -17.25 долгота 178.92 высота над уровнем моря 5 м.

В архиве по умолчанию представлена погода на Вануа Мбалаву за последнюю неделю. Архивные данные за месяц целиком и за предыдущие месяцы, начиная с января 2011 года, Вы можете получить, выбрав интересующий диапазон дат из раскрывающегося списка и нажав кнопку "Ввод!".


*Определитесь, кто Вы:
робот инопланетянин человек

Внимание! Время в таблицах - всемирное. Для получения местного времени необходимо прибавить поправку, которая равна 12 ч.

Смотрите также архив погоды в соседних городах и на ближайших метеорологических станциях:

Погода в Нэбаууолу (Фиджи) (36 км)
Погода в Ракираки (Фиджи) (76 км)
Погода в Наусори (Фиджи) (97 км)
Погода в Ламбасе (Фиджи) (106 км)
Погода в Сигатоке (Фиджи) (114 км)
Погода в Ясава-и-Рара (Фиджи) (155 км)
Погода в Нанди (Фиджи) (166 км)
Погода на Вануа Леву (Фиджи) (168 км)
Погода на Острове Вива (Фиджи) (215 км)
Погода в Вьюнисея (Фиджи) (216 км)

Пояснения к столбцам:

Ветер - указаны скорость ветра в м/с - средняя за 10 мин, порывы в срок и между сроками (в фигурных скобках) и направление, откуда дует ветер: С - северный, СВ - северо-восточный, В - восточный, ЮВ - юго-восточный, Ю - южный, ЮЗ - юго-западный, З - западный, СЗ - северо-западный.
Видимость - горизонтальная дальность видимости в метрах или километрах. При видимости от 1 до 10 км при отсутствии осадков обычно наблюдается дымка, при ухудшении видимости до 1 км и менее - туман. В сухую погоду видимость может ухудшаться дымом, пылью или мглою.
Явления - указаны атмосферные явления, наблюдавшиеся в срок или в последний час перед сроком; фигурными скобками обозначены явления, наблюдавшиеся между сроками (за 1-3 часа до срока); квадратными скобками обозначены град или гололедные отложения с указанием их диаметра в мм.
Облачность - указаны через наклонную черту общая и нижняя облачность в баллах и высота нижней границы облаков в метрах; квадратными скобками обозначены формы облаков: Ci - перистые, Cs - перисто-слоистые, Cc - перисто-кучевые, Ac - высококучевые, As - высокослоистые, Sc - слоисто-кучевые, Ns - слоисто-дождевые, Cu - кучевые, Cb - кучево-дождевые. Подробнее классификацию облаков см. в Атласе облаков (PDF).
T - Температура воздуха - температура, измеренная на высоте 2 м над землей.
Td - Температура точки росы - температура, при понижении до которой содержащийся в воздухе водяной пар достигнет насыщения.
f - Относительная влажность воздуха - влажноcть воздуха, измеренная на высоте 2 м над землей.
Te - Эффективная температура - температура, которую ощущает одетый по сезону человек в тени. Характеристика душности погоды. При расчете учитывается влияние влажности воздуха и скорости ветра на теплоощущения человека.
Tes - Эффективная температура на солнце - температура, которую ощущает человек, с поправкой на солнечный нагрев. Характеристика знойности погоды. Зависит от высоты солнца над горизонтом, облачности и скорости ветра. Ночью, в пасмурную погоду, а также при ветре 12 м/с и более поправка равна нулю.
P - Атмосферное давление - приведенное к уровню моря атмосферное давление.
Po - Атмосферное давление - измеренное на уровне метеостанции атмосферное давление.
Tmin - Минимальная температура - минимум температуры воздуха на высоте 2 м над землей.
Tmax - Максимальная температура - максимум температуры воздуха на высоте 2 м над землей.
R - Количество осадков - Количество выпавших осадков за период времени, мм. При наведении курсора мыши на число - период времени, за который выпало указанное количество осадков.
R24 - Количество осадков - Количество выпавших осадков за 24 часа, мм.
S - Снежный покров - Высота снежного покрова, см. При наведении курсора мыши на число - состояние снежного покрова и степень покрытия местности в баллах.